SL-14 DEB, 45299

Orbit data source: Space-Track

SL-14 DEB, 45299 is space debris in LEO originally from a launch on Thu, 15 Aug 1991 UTC launched from the Plesetsk Missile And Space Complex (PKMTR). Debris objects in space refer to the collection of defunct objects orbiting the Earth. Examples of debris include non-operational satellites, rocket bodies, and fragments generated from explosions, collisions, or faulty payload assembly.

Loading next visibility...
Identifier
45299, 1991-056AM
Orbit
LEO
Last TLE update
22 hours ago
Origin
Manufacturer
Unknown
Mission
Spacecraft
Bus & Motor
Unknown
Mass
Unknown
Launch date (UTC)
1991-08-15 (34 years ago)
Launch vehicle
Unknown
Launch site
Plesetsk Missile And Space Complex (PKMTR)
Object type
Payload
Rocket body
Debris
Shape & HBR
Unknown
Radar Cross Section
Medium (>0.1 m² and <1 m²)

Expand to show TLE details & history

TLE from 22 hours ago
0 SL-14 DEB
1 45299U 91056AM  25128.35748004  .00002697  00000-0  73025-2 0  9992
2 45299  82.6339  97.9359 0101819 321.5363  37.8529 13.12152445249677
Epoch: 2025-05-08T08:34Z
Definitive object data (Epoch: 2025-05-08T08:34:46.275Z)
Latitude
Longitude
102.81395°
Altitude
1,156.892 km
Speed
7.304 km/s
True Right ascension
06h 31m 44s
True Declination
0° 00' 00"
Sunlit
Object was in daylight at TLE epoch
Visualization TLE readout
Latitude
55.50675°
Longitude
112.96077°
Altitude
1,232.485 km
Speed
7.24 km/s
Apparent Right ascension
04h 56m 20s
Apparent Declination
15° 31' 28"
Sunlit
Object is in daylight
Visualization observer readout
Local Sidereal Time
14:58:13
Azimuth
327.423° NNW
Elevation
-28.116°
Doppler factor
1
Orbital elements
Apogee altitude
1,289.375 km
Perigee altitude
1,134.809 km
Semi-major axis
7,590.229 km
Eccentricity
0.0101819
Inclination
82.6339°
RAAN
97.9359°
Arg. of periapsis
321.5363°
True anomaly
38.57611°
Mean anomaly
37.8529°
Eccentric anomaly
38.21378°
Mean motion
3.28217 °/min
BSTAR
0.0073025
Orbital period
109.68 mins
Loading maneuver chart data...
Loading SW <> Apogee altitude chart data...
Loading historical data...
Loading historical data...
Loading historical data...
Loading historical data...
Loading historical data...
Loading historical data...
Loading historical data...

SL-14 DEB Visibility forecast

Observer location: undefined°, undefined°

Span
Click to sort rows by Start time (UTC) header in descending order
Start Az.
Max El. time (UTC)
Max El. Az.
Max El.
End time (UTC)
End Az.
14 mins2025-05-09 08:57:19.694Z5.686° NNE2025-05-09 09:04:19.694Z73.456° E34.535°2025-05-09 09:11:19.694Z144.276° SSE
12 mins2025-05-09 10:49:19.694Z330.574° NNW2025-05-09 10:55:19.694Z266.168° W30.549°2025-05-09 11:01:19.694Z212.251° SW
10 mins2025-05-09 21:18:19.694Z129.49° SE2025-05-09 21:23:19.694Z78.505° E23.503°2025-05-09 21:28:19.694Z33.377° NE
13 mins2025-05-09 23:07:19.694Z208.412° SW2025-05-09 23:13:19.694Z291.179° WNW39.283°2025-05-09 23:20:19.694Z359.302° N
|